Weather in Porechye

Russia / Tver Oblast     58°02′10″N   36°24′17″E
temp.,
°C
wind,
m/s
gust,
m/s
humid.,
%
clouds,
%
prec.,
mm/h
press.,
hPa
HPBL,
m
7 may, fri
fri700:00+6ssw51183100 0.1 10031174
03:00+6sw51084100 0.3 10041045
06:00+5sw4108441 0.0 1005836
09:00+8sw686691 0.1 10061417
12:00+10wsw61047100 0.2 10072340
15:00+11sw694647 0.4 10082246
18:00+11sw49547 0.1 10081711
21:00+6s387572 0.2 1009159
8 may, sat
sat800:00+5sse31081100 0.0 1009232
03:00+6se41279100 0.0 1008347
06:00+7sse61486100 0.5 10061181
09:00+7sse61392100 1.4 10051098
12:00+8sse51092100 0.4 1005726
15:00+9sse4691100 0.6 1005586
18:00+7nnw1298100 3.5 1005160
21:00+6nnw4109091 4.5 1006558
9 may, sun
sun900:00+4nnw4119553 0.0 1007509
03:00+4nnw51186100 0.0 1008841
06:00+3nw61188100 0.0 1010979
09:00+5nw51077100 0.0 10121058
12:00+9nnw695548 0.0 10141630
15:00+12nnw693895 0.0 10152528
18:00+11nw48465 0.0 10181965
21:00+6nw35670 0.0 102186
10 may, mon
mon1000:00+3nw227246 0.0 102322
03:00+2w117427 0.0 102610
06:00+4ssw237235 0.0 102780
09:00+11ssw35515 0.0 1028547
12:00+14sw4644100 0.0 10271439
15:00+14ssw3653100 0.0 10281056
18:00+15sw355712 0.0 1028934
21:00+10s23798 0.0 102939
11 may, tue
tue1100:00+8ssw238469 0.0 103036
03:00+7ssw228828 0.0 103028
06:00+8ssw2484100 0.0 1031111
09:00+14ssw2362100 0.0 1031423
12:00+18s3451100 0.0 10311037
15:00+19sse234899 0.0 10301191
18:00+18sse34585 0.0 1029783
21:00+12sse36815 0.0 102997